| time (UTC) | temp F | wind direction | speed MPH | gust MPH | rain 1hr in | rain 24hr in | rain mn in | humidity % | barometer mb |
| 20260507155621 | 46 | 156 | 2.0 | 3.0 | 0.00 | 0.05 | 0.05 | 96 | 1005.4 |
| 20260507155118 | 46 | 34 | 0.0 | 3.0 | 0.00 | 0.05 | 0.05 | 99 | 1005.5 |
| 20260507154615 | 46 | 81 | 3.0 | 4.0 | 0.00 | 0.05 | 0.05 | 99 | 1005.8 |
| 20260507154112 | 45 | 84 | 2.0 | 2.0 | 0.00 | 0.05 | 0.05 | 99 | 1005.7 |
| 20260507153608 | 44 | 342 | 2.0 | 2.0 | 0.00 | 0.05 | 0.05 | 99 | 1005.5 |
| 20260507153105 | 44 | 340 | 2.0 | 3.0 | 0.00 | 0.05 | 0.05 | 99 | 1005.7 |
| 20260507152601 | 44 | 343 | 2.0 | 2.0 | 0.00 | 0.05 | 0.05 | 99 | 1005.7 |
| 20260507152057 | 44 | 18 | 2.0 | 2.0 | 0.00 | 0.05 | 0.05 | 99 | 1005.8 |
| 20260507151554 | 43 | 343 | 2.0 | 3.0 | 0.00 | 0.05 | 0.05 | 99 | 1005.9 |
| 20260507151051 | 44 | 353 | 3.0 | 3.0 | 0.00 | 0.05 | 0.05 | 99 | 1005.9 |
| 20260507150548 | 44 | 57 | 0.0 | 1.0 | 0.00 | 0.05 | 0.05 | 99 | 1005.9 |
| 20260507150045 | 43 | 271 | 2.0 | 3.0 | 0.00 | 0.05 | 0.05 | 99 | 1005.8 |
| 20260507145540 | 43 | 149 | 2.0 | 3.0 | 0.07 | 0.05 | 0.05 | 99 | 1005.7 |
| 20260507145038 | 42 | 161 | 2.0 | 3.0 | 0.24 | 0.05 | 0.05 | 99 | 1005.9 |
| 20260507144534 | 43 | 187 | 2.0 | 7.0 | 0.12 | 0.03 | 0.03 | 99 | 1005.9 |
| 20260507144032 | 43 | 300 | 1.0 | 3.0 | 0.07 | 0.01 | 0.01 | 98 | 1005.9 |
| 20260507143528 | 44 | 312 | 0.0 | 2.0 | 0.07 | 0.01 | 0.01 | 95 | 1005.7 |
| 20260507143026 | 44 | 284 | 2.0 | 3.0 | 0.00 | 0.00 | 0.00 | 94 | 1005.6 |
| 20260507142522 | 44 | 287 | 2.0 | 3.0 | 0.00 | 0.00 | 0.00 | 96 | 1005.7 |
| 20260507142019 | 44 | 318 | 1.0 | 2.0 | 0.00 | 0.00 | 0.00 | 95 | 1005.7 |
| 20260507141515 | 45 | 272 | 3.0 | 3.0 | 0.00 | 0.00 | 0.00 | 94 | 1005.6 |
| 20260507141012 | 45 | 323 | 0.0 | 3.0 | 0.00 | 0.00 | 0.00 | 94 | 1005.7 |
| 20260507140508 | 45 | 301 | 1.0 | 2.0 | 0.00 | 0.00 | 0.00 | 93 | 1005.7 |
| 20260507140006 | 45 | 240 | 2.0 | 3.0 | 0.00 | 0.00 | 0.00 | 94 | 1005.7 |
| 20260507135502 | 45 | 266 | 0.0 | 1.0 | 0.00 | 0.00 | 0.00 | 96 | 1005.7 |
| 20260507134954 | 44 | 281 | 0.0 | 2.0 | 0.00 | 0.00 | 0.00 | 96 | 1005.8 |
| 20260507134450 | 44 | 190 | 1.0 | 2.0 | 0.00 | 0.00 | 0.00 | 96 | 1005.8 |
| 20260507133946 | 44 | 167 | 2.0 | 3.0 | 0.00 | 0.00 | 0.00 | 95 | 1005.7 |
| 20260507133442 | 44 | 175 | 2.0 | 2.0 | 0.00 | 0.00 | 0.00 | 94 | 1005.7 |
| 20260507132941 | 44 | 138 | 0.0 | 2.0 | 0.00 | 0.00 | 0.00 | 94 | 1006.0 |
| 20260507132436 | 44 | 241 | 2.0 | 3.0 | 0.00 | 0.00 | 0.00 | 94 | 1006.0 |
| 20260507131933 | 44 | 258 | 2.0 | 2.0 | 0.00 | 0.00 | 0.00 | 95 | 1006.1 |
| 20260507131430 | 44 | 270 | 0.0 | 1.0 | 0.00 | 0.00 | 0.00 | 96 | 1006.1 |
| 20260507130927 | 44 | 244 | 1.0 | 2.0 | 0.00 | 0.00 | 0.00 | 96 | 1006.0 |
| 20260507130424 | 44 | 218 | 0.0 | 2.0 | 0.00 | 0.00 | 0.00 | 98 | 1006.0 |
| 20260507125923 | 44 | 229 | 1.0 | 1.0 | 0.00 | 0.00 | 0.00 | 98 | 1006.2 |
| 20260507125421 | 43 | 246 | 1.0 | 2.0 | 0.00 | 0.00 | 0.00 | 99 | 1006.1 |
| 20260507124918 | 43 | 308 | 0.0 | 1.0 | 0.00 | 0.00 | 0.00 | 99 | 1006.1 |
| 20260507124413 | 44 | 275 | 0.0 | 0.0 | 0.00 | 0.00 | 0.00 | 99 | 1006.1 |
| 20260507123912 | 43 | 290 | 0.0 | 2.0 | 0.00 | 0.00 | 0.00 | 99 | 1006.1 |
| 20260507123409 | 43 | 216 | 1.0 | 1.0 | 0.00 | 0.00 | 0.00 | 99 | 1005.9 |
| 20260507122905 | 43 | 277 | 0.0 | 0.0 | 0.00 | 0.00 | 0.00 | 99 | 1005.9 |
| 20260507122400 | 43 | 284 | 0.0 | 0.0 | 0.00 | 0.00 | 0.00 | 99 | 1006.0 |
| 20260507121857 | 42 | 204 | 0.0 | 2.0 | 0.00 | 0.00 | 0.00 | 99 | 1006.1 |
| 20260507121352 | 42 | 297 | 0.0 | 0.0 | 0.00 | 0.00 | 0.00 | 99 | 1006.1 |
| 20260507120850 | 42 | 347 | 0.0 | 0.0 | 0.00 | 0.00 | 0.00 | 99 | 1006.0 |
| 20260507120346 | 42 | 258 | 0.0 | 0.0 | 0.00 | 0.00 | 0.00 | 99 | 1006.0 |
| 20260507115842 | 42 | 276 | 0.0 | 0.0 | 0.00 | 0.00 | 0.00 | 99 | 1005.8 |
| 20260507115337 | 42 | 73 | 0.0 | 0.0 | 0.00 | 0.00 | 0.00 | 99 | 1006.0 |
| 20260507114834 | 42 | 81 | 0.0 | 1.0 | 0.00 | 0.00 | 0.00 | 99 | 1006.0 |
| 20260507114331 | 42 | 38 | 0.0 | 0.0 | 0.00 | 0.00 | 0.00 | 99 | 1006.0 |
| 20260507113828 | 41 | 33 | 0.0 | 0.0 | 0.00 | 0.00 | 0.00 | 99 | 1005.9 |
| 20260507113325 | 41 | 283 | 0.0 | 1.0 | 0.00 | 0.00 | 0.00 | 99 | 1006.0 |
| 20260507112823 | 41 | 250 | 1.0 | 1.0 | 0.00 | 0.00 | 0.00 | 99 | 1006.0 |
| 20260507112320 | 41 | 230 | 0.0 | 1.0 | 0.00 | 0.00 | 0.00 | 99 | 1006.1 |
| 20260507111818 | 41 | 199 | 1.0 | 1.0 | 0.00 | 0.00 | 0.00 | 99 | 1006.0 |
| 20260507111314 | 41 | 197 | 0.0 | 0.0 | 0.00 | 0.00 | 0.00 | 99 | 1006.1 |
| 20260507110810 | 41 | 264 | 0.0 | 0.0 | 0.00 | 0.00 | 0.00 | 99 | 1006.1 |
| 20260507110306 | 41 | 86 | 0.0 | 0.0 | 0.00 | 0.00 | 0.00 | 99 | 1006.0 |
| 20260507105803 | 41 | 89 | 2.0 | 2.0 | 0.00 | 0.00 | 0.00 | 99 | 1006.1 |
| 20260507105259 | 41 | 95 | 1.0 | 2.0 | 0.00 | 0.00 | 0.00 | 99 | 1006.1 |
| 20260507104757 | 41 | 26 | 0.0 | 0.0 | 0.00 | 0.00 | 0.00 | 99 | 1006.3 |
| 20260507104253 | 41 | 159 | 0.0 | 0.0 | 0.00 | 0.00 | 0.00 | 99 | 1006.3 |
| 20260507103749 | 41 | 73 | 0.0 | 1.0 | 0.00 | 0.00 | 0.00 | 99 | 1006.0 |
| 20260507103240 | 40 | 73 | 0.0 | 0.0 | 0.00 | 0.00 | 0.00 | 99 | 1006.1 |
| 20260507102736 | 40 | 73 | 0.0 | 0.0 | 0.00 | 0.00 | 0.00 | 99 | 1006.0 |
| 20260507102233 | 40 | 73 | 0.0 | 0.0 | 0.00 | 0.00 | 0.00 | 99 | 1005.8 |
| 20260507101729 | 39 | 262 | 0.0 | 0.0 | 0.00 | 0.00 | 0.00 | 99 | 1005.9 |
| 20260507101225 | 39 | 267 | 0.0 | 0.0 | 0.00 | 0.00 | 0.00 | 99 | 1006.1 |
| 20260507100722 | 40 | 271 | 0.0 | 1.0 | 0.00 | 0.00 | 0.00 | 99 | 1006.0 |
| 20260507100220 | 40 | 239 | 1.0 | 1.0 | 0.00 | 0.00 | 0.00 | 99 | 1006.0 |
| 20260507095718 | 40 | 228 | 1.0 | 1.0 | 0.00 | 0.00 | 0.00 | 99 | 1005.8 |
| 20260507095214 | 40 | 197 | 1.0 | 1.0 | 0.00 | 0.00 | 0.00 | 99 | 1005.6 |
| 20260507094711 | 40 | 70 | 0.0 | 0.0 | 0.00 | 0.00 | 0.00 | 99 | 1005.7 |
| 20260507094208 | 40 | 80 | 0.0 | 1.0 | 0.00 | 0.00 | 0.00 | 99 | 1005.6 |
| 20260507093705 | 40 | 67 | 0.0 | 0.0 | 0.00 | 0.00 | 0.00 | 99 | 1005.8 |
| 20260507093203 | 40 | 101 | 0.0 | 0.0 | 0.00 | 0.00 | 0.00 | 99 | 1005.9 |
| 20260507092700 | 40 | 62 | 0.0 | 0.0 | 0.00 | 0.00 | 0.00 | 99 | 1005.8 |
| 20260507092156 | 40 | 350 | 0.0 | 0.0 | 0.00 | 0.00 | 0.00 | 99 | 1005.8 |
| 20260507091653 | 40 | 21 | 0.0 | 0.0 | 0.00 | 0.00 | 0.00 | 99 | 1005.9 |
| 20260507091149 | 40 | 111 | 0.0 | 1.0 | 0.00 | 0.00 | 0.00 | 99 | 1006.0 |
| 20260507090645 | 40 | 118 | 1.0 | 2.0 | 0.00 | 0.00 | 0.00 | 99 | 1005.7 |
| 20260507090142 | 40 | 247 | 0.0 | 0.0 | 0.00 | 0.00 | 0.00 | 99 | 1005.8 |
| 20260507085639 | 40 | 206 | 0.0 | 0.0 | 0.00 | 0.00 | 0.00 | 99 | 1005.9 |
| 20260507085136 | 40 | 186 | 0.0 | 1.0 | 0.00 | 0.00 | 0.00 | 99 | 1005.9 |
| 20260507084633 | 40 | 242 | 0.0 | 1.0 | 0.00 | 0.00 | 0.00 | 99 | 1005.9 |
| 20260507084130 | 39 | 276 | 0.0 | 0.0 | 0.00 | 0.00 | 0.00 | 99 | 1006.1 |
| 20260507083626 | 40 | 276 | 0.0 | 0.0 | 0.00 | 0.00 | 0.00 | 99 | 1006.0 |
| 20260507083123 | 40 | 251 | 0.0 | 0.0 | 0.00 | 0.00 | 0.00 | 99 | 1006.0 |
| 20260507082619 | 40 | 250 | 0.0 | 0.0 | 0.00 | 0.00 | 0.00 | 99 | 1005.7 |
| 20260507082116 | 40 | 279 | 0.0 | 0.0 | 0.00 | 0.00 | 0.00 | 99 | 1005.7 |
| 20260507081612 | 40 | 279 | 0.0 | 0.0 | 0.00 | 0.00 | 0.00 | 99 | 1005.6 |
| 20260507081109 | 40 | 278 | 0.0 | 0.0 | 0.00 | 0.00 | 0.00 | 99 | 1005.7 |
| 20260507080605 | 40 | 278 | 0.0 | 0.0 | 0.00 | 0.00 | 0.00 | 99 | 1005.5 |
| 20260507075556 | 40 | 164 | 0.0 | 0.0 | 0.00 | 0.00 | 0.00 | 99 | 1005.5 |
| 20260507075053 | 41 | 164 | 0.0 | 0.0 | 0.00 | 0.00 | 0.00 | 99 | 1005.5 |
| 20260507074550 | 41 | 164 | 0.0 | 1.0 | 0.00 | 0.00 | 0.00 | 99 | 1005.6 |
| 20260507074048 | 41 | 155 | 2.0 | 2.0 | 0.00 | 0.00 | 0.00 | 99 | 1005.7 |
| 20260507073544 | 41 | 127 | 1.0 | 3.0 | 0.00 | 0.00 | 0.00 | 99 | 1005.5 |
| 20260507073041 | 41 | 77 | 0.0 | 0.0 | 0.00 | 0.00 | 0.00 | 99 | 1005.5 |
| 20260507072538 | 41 | 302 | 0.0 | 0.0 | 0.00 | 0.00 | 0.00 | 99 | 1005.7 |
| 20260507072035 | 41 | 283 | 0.0 | 0.0 | 0.00 | 0.00 | 0.00 | 99 | 1005.7 |
| 20260507071533 | 41 | 220 | 0.0 | 0.0 | 0.00 | 0.00 | 0.00 | 99 | 1005.8 |
| 20260507071029 | 41 | 273 | 0.0 | 0.0 | 0.00 | 0.00 | 0.00 | 99 | 1005.5 |
| 20260507070527 | 41 | 199 | 2.0 | 3.0 | 0.00 | 0.00 | 0.00 | 99 | 1005.7 |
| 20260507070024 | 41 | 281 | 0.0 | 0.0 | 0.00 | 0.00 | 0.00 | 99 | 1005.4 |
| 20260507065520 | 40 | 280 | 0.0 | 0.0 | 0.00 | 0.00 | 0.00 | 99 | 1005.4 |
| 20260507065017 | 41 | 281 | 0.0 | 0.0 | 0.00 | 0.00 | 0.00 | 99 | 1005.5 |
| 20260507064515 | 41 | 280 | 0.0 | 0.0 | 0.00 | 0.00 | 0.00 | 99 | 1005.7 |
| 20260507064013 | 40 | 281 | 0.0 | 0.0 | 0.00 | 0.00 | 0.00 | 99 | 1005.5 |
| 20260507063510 | 41 | 281 | 0.0 | 0.0 | 0.00 | 0.00 | 0.00 | 99 | 1005.5 |
| 20260507063007 | 41 | 281 | 0.0 | 0.0 | 0.00 | 0.00 | 0.00 | 99 | 1005.8 |
| 20260507062504 | 41 | 281 | 0.0 | 0.0 | 0.00 | 0.00 | 0.00 | 99 | 1005.8 |
| 20260507062001 | 41 | 280 | 0.0 | 0.0 | 0.00 | 0.00 | 0.00 | 99 | 1006.0 |
| 20260507061459 | 41 | 280 | 0.0 | 0.0 | 0.00 | 0.00 | 0.00 | 99 | 1005.5 |
| 20260507060957 | 41 | 279 | 0.0 | 0.0 | 0.00 | 0.00 | 0.00 | 99 | 1005.4 |
| 20260507060454 | 41 | 273 | 0.0 | 0.0 | 0.00 | 0.00 | 0.00 | 99 | 1005.3 |
| 20260507055950 | 41 | 358 | 0.0 | 0.0 | 0.00 | 0.00 | 0.00 | 99 | 1005.2 |
| 20260507055446 | 42 | 325 | 0.0 | 0.0 | 0.00 | 0.00 | 0.00 | 99 | 1005.6 |
| 20260507054943 | 42 | 325 | 0.0 | 0.0 | 0.00 | 0.00 | 0.00 | 99 | 1005.6 |
| 20260507054439 | 42 | 325 | 0.0 | 0.0 | 0.00 | 0.00 | 0.00 | 99 | 1005.6 |
| 20260507053936 | 42 | 300 | 0.0 | 0.0 | 0.00 | 0.00 | 0.00 | 99 | 1005.8 |
| 20260507053433 | 42 | 307 | 0.0 | 0.0 | 0.00 | 0.00 | 0.00 | 99 | 1005.5 |
| 20260507052932 | 42 | 339 | 0.0 | 0.0 | 0.00 | 0.00 | 0.00 | 99 | 1005.6 |
| 20260507052429 | 42 | 5 | 1.0 | 2.0 | 0.00 | 0.00 | 0.00 | 99 | 1005.6 |
| 20260507051926 | 42 | 344 | 1.0 | 1.0 | 0.00 | 0.00 | 0.00 | 99 | 1005.6 |
| 20260507051424 | 42 | 1 | 0.0 | 1.0 | 0.00 | 0.00 | 0.00 | 99 | 1005.7 |
| 20260507050920 | 42 | 10 | 1.0 | 2.0 | 0.00 | 0.00 | 0.00 | 99 | 1005.8 |
| 20260507050417 | 42 | 352 | 1.0 | 2.0 | 0.00 | 0.00 | 0.00 | 99 | 1005.7 |
| 20260507045914 | 42 | 353 | 1.0 | 3.0 | 0.00 | 0.00 | 0.00 | 99 | 1005.6 |
| 20260507045410 | 42 | 336 | 2.0 | 2.0 | 0.00 | 0.00 | 0.00 | 99 | 1005.7 |
| 20260507044908 | 42 | 357 | 2.0 | 2.0 | 0.00 | 0.00 | 0.00 | 99 | 1005.6 |
| 20260507044404 | 42 | 293 | 0.0 | 1.0 | 0.00 | 0.00 | 0.00 | 99 | 1005.7 |
| 20260507043900 | 42 | 329 | 2.0 | 2.0 | 0.00 | 0.00 | 0.00 | 99 | 1005.6 |
| 20260507043352 | 43 | 327 | 1.0 | 2.0 | 0.00 | 0.00 | 0.00 | 99 | 1005.5 |
| 20260507042848 | 43 | 323 | 3.0 | 4.0 | 0.00 | 0.00 | 0.00 | 99 | 1005.8 |
| 20260507042344 | 43 | 315 | 0.0 | 1.0 | 0.00 | 0.00 | 0.00 | 99 | 1005.6 |
| 20260507041841 | 43 | 310 | 2.0 | 2.0 | 0.00 | 0.00 | 0.00 | 99 | 1005.9 |
| 20260507041337 | 42 | 298 | 1.0 | 2.0 | 0.00 | 0.00 | 0.00 | 99 | 1005.8 |
| 20260507040835 | 42 | 346 | 0.0 | 0.0 | 0.00 | 0.00 | 0.00 | 99 | 1005.6 |
| 20260507040330 | 43 | 54 | 1.0 | 1.0 | 0.00 | 0.00 | 0.00 | 99 | 1005.5 |
| 20260507035826 | 43 | 313 | 0.0 | 0.0 | 0.00 | 1.03 | 1.03 | 99 | 1006.0 |
| 20260507035322 | 43 | 304 | 0.0 | 0.0 | 0.05 | 1.03 | 1.03 | 99 | 1006.0 |
| 20260507034820 | 43 | 308 | 1.0 | 1.0 | 0.05 | 1.03 | 1.03 | 99 | 1005.8 |
| 20260507034316 | 43 | 286 | 1.0 | 2.0 | 0.00 | 1.02 | 1.02 | 99 | 1005.7 |
| 20260507033814 | 43 | 352 | 0.0 | 2.0 | 0.00 | 1.02 | 1.02 | 99 | 1005.6 |
| 20260507033312 | 43 | 359 | 0.0 | 2.0 | 0.00 | 1.02 | 1.02 | 99 | 1005.8 |
| 20260507032809 | 43 | 19 | 0.0 | 0.0 | 0.00 | 1.02 | 1.02 | 99 | 1005.9 |
| 20260507032306 | 43 | 317 | 0.0 | 0.0 | 0.00 | 1.02 | 1.02 | 99 | 1006.2 |
| 20260507031801 | 43 | 353 | 1.0 | 3.0 | 0.07 | 1.02 | 1.02 | 99 | 1006.0 |
| 20260507031258 | 43 | 332 | 0.0 | 0.0 | 0.07 | 1.02 | 1.02 | 99 | 1006.2 |
| 20260507030755 | 43 | 349 | 0.0 | 0.0 | 0.00 | 1.01 | 1.01 | 99 | 1006.2 |
| 20260507030252 | 43 | 323 | 0.0 | 0.0 | 0.07 | 1.01 | 1.01 | 99 | 1006.3 |
| 20260507025749 | 43 | 305 | 0.0 | 1.0 | 0.07 | 1.01 | 1.01 | 99 | 1006.4 |
| 20260507025246 | 43 | 322 | 0.0 | 0.0 | 0.00 | 1.00 | 1.00 | 99 | 1006.4 |
| 20260507024745 | 43 | 309 | 0.0 | 0.0 | 0.05 | 1.00 | 1.00 | 99 | 1006.4 |
| 20260507024241 | 43 | 347 | 1.0 | 2.0 | 0.05 | 1.00 | 1.00 | 99 | 1006.4 |
| 20260507023737 | 43 | 354 | 0.0 | 0.0 | 0.07 | 0.99 | 0.99 | 99 | 1006.4 |
| 20260507023234 | 43 | 339 | 0.0 | 0.0 | 0.07 | 0.99 | 0.99 | 99 | 1006.7 |
| 20260507022731 | 43 | 322 | 0.0 | 0.0 | 0.12 | 0.98 | 0.98 | 99 | 1006.6 |
| 20260507022227 | 43 | 345 | 0.0 | 2.0 | 0.12 | 0.98 | 0.98 | 99 | 1006.3 |
| 20260507021724 | 43 | 334 | 1.0 | 1.0 | 0.00 | 0.96 | 0.96 | 99 | 1006.3 |
| 20260507021219 | 43 | 338 | 0.0 | 1.0 | 0.05 | 0.96 | 0.96 | 99 | 1006.2 |
| 20260507020718 | 43 | 342 | 1.0 | 2.0 | 0.05 | 0.96 | 0.96 | 99 | 1006.1 |
| 20260507020214 | 43 | 348 | 0.0 | 1.0 | 0.00 | 0.95 | 0.95 | 99 | 1006.2 |
| 20260507015712 | 43 | 357 | 0.0 | 1.0 | 0.07 | 0.95 | 0.95 | 99 | 1006.3 |
| 20260507015209 | 43 | 348 | 1.0 | 1.0 | 0.07 | 0.95 | 0.95 | 99 | 1005.9 |
| 20260507014705 | 43 | 352 | 0.0 | 2.0 | 0.00 | 0.94 | 0.94 | 99 | 1005.9 |
| 20260507014201 | 43 | 15 | 1.0 | 2.0 | 0.05 | 0.94 | 0.94 | 99 | 1005.8 |
| 20260507013658 | 44 | 333 | 2.0 | 2.0 | 0.05 | 0.94 | 0.94 | 99 | 1006.1 |
| 20260507013155 | 44 | 354 | 0.0 | 1.0 | 0.00 | 0.93 | 0.93 | 99 | 1005.9 |
| 20260507012653 | 44 | 14 | 1.0 | 2.0 | 0.07 | 0.93 | 0.93 | 99 | 1006.2 |
| 20260507012148 | 44 | 340 | 1.0 | 3.0 | 0.07 | 0.93 | 0.93 | 99 | 1006.1 |
| 20260507011647 | 44 | 4 | 0.0 | 2.0 | 0.00 | 0.92 | 0.92 | 99 | 1005.9 |
| 20260507011142 | 44 | 331 | 1.0 | 2.0 | 0.05 | 0.92 | 0.92 | 99 | 1005.7 |
| 20260507010637 | 44 | 9 | 1.0 | 4.0 | 0.05 | 0.92 | 0.92 | 99 | 1005.6 |
| 20260507010133 | 44 | 346 | 1.0 | 2.0 | 0.00 | 0.91 | 0.91 | 99 | 1005.6 |
| 20260507005631 | 44 | 356 | 2.0 | 3.0 | 0.07 | 0.91 | 0.91 | 99 | 1005.7 |
| 20260507005127 | 44 | 332 | 3.0 | 3.0 | 0.07 | 0.91 | 0.91 | 99 | 1005.2 |
| 20260507004625 | 44 | 2.0 | 4.0 | 0.05 | 0.90 | 0.90 | 99 | 1005.3 | |
| 20260507004122 | 44 | 350 | 3.0 | 4.0 | 0.12 | 0.90 | 0.90 | 99 | 1005.3 |
| 20260507003617 | 44 | 3 | 0.0 | 0.0 | 0.07 | 0.89 | 0.89 | 99 | 1005.4 |
| 20260507003112 | 44 | 323 | 1.0 | 2.0 | 0.00 | 0.88 | 0.88 | 99 | 1005.1 |
| 20260507002609 | 44 | 11 | 1.0 | 2.0 | 0.07 | 0.88 | 0.88 | 99 | 1005.2 |
| 20260507002105 | 44 | 335 | 2.0 | 2.0 | 0.07 | 0.88 | 0.88 | 99 | 1005.3 |
| 20260507001602 | 44 | 7 | 1.0 | 3.0 | 0.00 | 0.87 | 0.87 | 99 | 1005.1 |
| 20260507001059 | 44 | 359 | 3.0 | 4.0 | 0.00 | 0.87 | 0.87 | 99 | 1005.2 |
| 20260507000555 | 44 | 346 | 2.0 | 3.0 | 0.00 | 0.87 | 0.87 | 99 | 1004.9 |
| 20260507000051 | 44 | 346 | 2.0 | 3.0 | 0.05 | 0.87 | 0.87 | 99 | 1004.9 |
| 20260506235549 | 44 | 347 | 2.0 | 3.0 | 0.05 | 0.87 | 0.87 | 99 | 1005.0 |
| 20260506235044 | 44 | 348 | 1.0 | 3.0 | 0.00 | 0.86 | 0.86 | 99 | 1005.0 |
| 20260506234542 | 44 | 14 | 4.0 | 6.0 | 0.07 | 0.86 | 0.86 | 99 | 1005.1 |
| 20260506234039 | 44 | 294 | 2.0 | 3.0 | 0.07 | 0.86 | 0.86 | 99 | 1005.2 |
| 20260506233536 | 45 | 332 | 1.0 | 1.0 | 0.00 | 0.85 | 0.85 | 99 | 1005.2 |
| 20260506233032 | 45 | 327 | 1.0 | 2.0 | 0.00 | 0.85 | 0.85 | 99 | 1004.7 |
| 20260506232529 | 45 | 2 | 1.0 | 3.0 | 0.00 | 0.85 | 0.85 | 99 | 1004.6 |
| 20260506232024 | 45 | 352 | 4.0 | 4.0 | 0.05 | 0.85 | 0.85 | 99 | 1004.6 |
| 20260506231522 | 45 | 348 | 5.0 | 6.0 | 0.05 | 0.85 | 0.85 | 99 | 1004.8 |
| 20260506231020 | 45 | 350 | 2.0 | 3.0 | 0.00 | 0.84 | 0.84 | 99 | 1004.7 |
| 20260506230516 | 45 | 8 | 4.0 | 4.0 | 0.00 | 0.84 | 0.84 | 99 | 1004.5 |
| 20260506230014 | 45 | 310 | 3.0 | 3.0 | 0.00 | 0.84 | 0.84 | 99 | 1004.5 |
| 20260506225510 | 45 | 328 | 3.0 | 3.0 | 0.00 | 0.84 | 0.84 | 99 | 1004.5 |
| 20260506225006 | 45 | 336 | 2.0 | 3.0 | 0.00 | 0.84 | 0.84 | 99 | 1004.4 |
| 20260506224503 | 45 | 307 | 0.0 | 2.0 | 0.00 | 0.84 | 0.84 | 99 | 1004.4 |
| 20260506224000 | 45 | 320 | 2.0 | 3.0 | 0.07 | 0.84 | 0.84 | 99 | 1004.2 |
| 20260506223456 | 45 | 318 | 2.0 | 3.0 | 0.07 | 0.84 | 0.84 | 99 | 1004.4 |
| 20260506222953 | 45 | 349 | 1.0 | 4.0 | 0.00 | 0.83 | 0.83 | 99 | 1004.3 |
| 20260506222450 | 45 | 356 | 3.0 | 6.0 | 0.00 | 0.83 | 0.83 | 99 | 1004.4 |
| 20260506221946 | 45 | 4 | 4.0 | 6.0 | 0.12 | 0.83 | 0.83 | 99 | 1004.4 |
| 20260506221443 | 45 | 17 | 3.0 | 4.0 | 0.17 | 0.83 | 0.83 | 99 | 1004.4 |
| 20260506220936 | 45 | 35 | 4.0 | 6.0 | 0.17 | 0.81 | 0.81 | 99 | 1004.6 |
| 20260506220431 | 45 | 349 | 2.0 | 8.0 | 0.17 | 0.79 | 0.79 | 99 | 1004.4 |
| 20260506215928 | 45 | 9 | 4.0 | 7.0 | 0.26 | 0.78 | 0.78 | 99 | 1004.6 |
| 20260506215424 | 45 | 339 | 4.0 | 8.0 | 0.31 | 0.76 | 0.76 | 99 | 1004.7 |
| 20260506214920 | 46 | 325 | 6.0 | 8.0 | 0.19 | 0.73 | 0.73 | 99 | 1004.3 |
| 20260506214417 | 46 | 4 | 4.0 | 11.0 | 0.12 | 0.71 | 0.71 | 99 | 1004.2 |
| 20260506213915 | 46 | 356 | 4.0 | 6.0 | 0.05 | 0.70 | 0.70 | 99 | 1004.0 |
| 20260506213412 | 47 | 286 | 4.0 | 7.0 | 0.07 | 0.69 | 0.69 | 99 | 1004.0 |
| 20260506212910 | 47 | 3 | 2.0 | 4.0 | 0.12 | 0.69 | 0.69 | 99 | 1004.2 |
| 20260506212405 | 47 | 359 | 3.0 | 6.0 | 0.17 | 0.68 | 0.68 | 99 | 1004.0 |
| 20260506211900 | 47 | 356 | 2.0 | 6.0 | 0.19 | 0.67 | 0.67 | 99 | 1003.6 |
| 20260506211357 | 48 | 337 | 3.0 | 4.0 | 0.07 | 0.65 | 0.65 | 99 | 1003.9 |
| 20260506210854 | 48 | 349 | 4.0 | 7.0 | 0.00 | 0.64 | 0.64 | 99 | 1003.6 |
| 20260506210350 | 48 | 347 | 3.0 | 4.0 | 0.00 | 0.64 | 0.64 | 99 | 1003.4 |
| 20260506205842 | 48 | 17 | 2.0 | 3.0 | 0.05 | 0.64 | 0.64 | 99 | 1003.4 |
| 20260506205338 | 48 | 7 | 3.0 | 6.0 | 0.07 | 0.63 | 0.63 | 99 | 1003.4 |
| 20260506204834 | 48 | 12 | 4.0 | 6.0 | 0.07 | 0.63 | 0.63 | 99 | 1003.2 |
| 20260506204332 | 48 | 332 | 6.0 | 9.0 | 0.00 | 0.62 | 0.62 | 99 | 1003.4 |
| 20260506203830 | 49 | 343 | 6.0 | 9.0 | 0.00 | 0.62 | 0.62 | 99 | 1003.4 |
| 20260506203327 | 49 | 2 | 3.0 | 6.0 | 0.00 | 0.62 | 0.62 | 99 | 1003.1 |
| 20260506202823 | 49 | 323 | 4.0 | 6.0 | 0.00 | 0.62 | 0.62 | 99 | 1003.3 |
| 20260506202320 | 49 | 355 | 4.0 | 4.0 | 0.00 | 0.62 | 0.62 | 99 | 1003.4 |
| 20260506201816 | 49 | 357 | 4.0 | 6.0 | 0.00 | 0.62 | 0.62 | 99 | 1003.4 |
| 20260506201314 | 49 | 328 | 5.0 | 6.0 | 0.00 | 0.62 | 0.62 | 99 | 1003.3 |
| 20260506200810 | 49 | 295 | 2.0 | 8.0 | 0.00 | 0.62 | 0.62 | 99 | 1003.5 |
| 20260506200306 | 50 | 354 | 3.0 | 6.0 | 0.00 | 0.62 | 0.62 | 99 | 1003.4 |
| 20260506195803 | 50 | 10 | 2.0 | 4.0 | 0.00 | 0.62 | 0.62 | 99 | 1003.4 |
| 20260506195300 | 51 | 300 | 4.0 | 4.0 | 0.00 | 0.62 | 0.62 | 99 | 1003.3 |
| 20260506194757 | 51 | 341 | 1.0 | 2.0 | 0.07 | 0.62 | 0.62 | 99 | 1003.2 |
| 20260506194253 | 51 | 269 | 2.0 | 9.0 | 0.07 | 0.62 | 0.62 | 99 | 1003.5 |
| 20260506193752 | 52 | 14 | 2.0 | 3.0 | 0.00 | 0.61 | 0.61 | 99 | 1003.4 |
| 20260506193248 | 53 | 305 | 2.0 | 6.0 | 0.05 | 0.61 | 0.61 | 99 | 1003.6 |
| 20260506192744 | 55 | 358 | 2.0 | 4.0 | 0.05 | 0.61 | 0.61 | 99 | 1003.6 |
| 20260506192241 | 55 | 306 | 2.0 | 2.0 | 0.07 | 0.60 | 0.60 | 99 | 1003.5 |
| 20260506191738 | 55 | 333 | 0.0 | 2.0 | 0.07 | 0.60 | 0.60 | 99 | 1003.5 |
| 20260506191234 | 55 | 355 | 1.0 | 1.0 | 0.05 | 0.59 | 0.59 | 99 | 1003.5 |
| 20260506190732 | 55 | 349 | 1.0 | 2.0 | 0.12 | 0.59 | 0.59 | 99 | 1003.6 |
| 20260506190228 | 55 | 334 | 1.0 | 2.0 | 0.12 | 0.58 | 0.58 | 99 | 1003.7 |
| 20260506185725 | 57 | 8 | 0.0 | 1.0 | 0.12 | 0.57 | 0.57 | 99 | 1003.9 |
| 20260506185221 | 57 | 279 | 0.0 | 2.0 | 0.19 | 0.56 | 0.56 | 99 | 1004.0 |
| 20260506184719 | 57 | 264 | 1.0 | 2.0 | 0.12 | 0.54 | 0.54 | 99 | 1004.1 |
| 20260506184216 | 57 | 294 | 2.0 | 2.0 | 0.12 | 0.53 | 0.53 | 99 | 1003.9 |
| 20260506183713 | 57 | 328 | 3.0 | 11.0 | 0.14 | 0.52 | 0.52 | 99 | 1003.9 |
| 20260506183208 | 57 | 276 | 1.0 | 2.0 | 0.12 | 0.51 | 0.51 | 99 | 1003.9 |
| 20260506182706 | 57 | 284 | 1.0 | 2.0 | 0.12 | 0.50 | 0.50 | 99 | 1004.1 |
| 20260506182203 | 57 | 274 | 0.0 | 0.0 | 0.12 | 0.49 | 0.49 | 99 | 1003.9 |
| 20260506181700 | 57 | 232 | 2.0 | 2.0 | 0.05 | 0.48 | 0.48 | 99 | 1004.2 |
| 20260506181158 | 57 | 252 | 0.0 | 0.0 | 0.12 | 0.47 | 0.47 | 99 | 1004.0 |
| 20260506180655 | 57 | 262 | 1.0 | 3.0 | 0.19 | 0.47 | 0.47 | 99 | 1004.1 |
| 20260506180151 | 57 | 164 | 2.0 | 2.0 | 0.12 | 0.45 | 0.45 | 99 | 1004.4 |
| 20260506175648 | 57 | 192 | 2.0 | 2.0 | 0.12 | 0.44 | 0.44 | 99 | 1004.3 |
| 20260506175145 | 57 | 196 | 2.0 | 3.0 | 0.12 | 0.43 | 0.43 | 99 | 1004.5 |
| 20260506174643 | 57 | 164 | 2.0 | 4.0 | 0.12 | 0.42 | 0.42 | 99 | 1004.6 |
| 20260506174139 | 57 | 238 | 2.0 | 3.0 | 0.12 | 0.41 | 0.41 | 99 | 1004.6 |
| 20260506173637 | 57 | 204 | 1.0 | 2.0 | 0.12 | 0.40 | 0.40 | 99 | 1004.5 |
| 20260506173133 | 57 | 146 | 2.0 | 2.0 | 0.07 | 0.39 | 0.39 | 99 | 1004.5 |
| 20260506172630 | 56 | 219 | 1.0 | 2.0 | 0.07 | 0.38 | 0.38 | 99 | 1004.5 |
| 20260506172121 | 55 | 258 | 0.0 | 0.0 | 0.07 | 0.38 | 0.38 | 99 | 1004.6 |
| 20260506171620 | 55 | 327 | 0.0 | 0.0 | 0.05 | 0.37 | 0.37 | 99 | 1004.4 |
| 20260506171117 | 55 | 327 | 0.0 | 0.0 | 0.07 | 0.36 | 0.36 | 99 | 1004.5 |
| 20260506170614 | 55 | 328 | 0.0 | 0.0 | 0.07 | 0.36 | 0.36 | 99 | 1004.4 |
| 20260506170110 | 55 | 325 | 0.0 | 1.0 | 0.05 | 0.35 | 0.35 | 99 | 1004.6 |
| 20260506165609 | 55 | 333 | 1.0 | 2.0 | 0.05 | 0.35 | 0.35 | 99 | 1004.6 |
| 20260506165059 | 55 | 346 | 1.0 | 1.0 | 0.07 | 0.34 | 0.34 | 99 | 1004.7 |
| 20260506164556 | 55 | 16 | 1.0 | 2.0 | 0.07 | 0.34 | 0.34 | 99 | 1004.6 |
| 20260506164053 | 55 | 312 | 0.0 | 0.0 | 0.05 | 0.33 | 0.33 | 99 | 1004.6 |
| 20260506163549 | 55 | 297 | 0.0 | 2.0 | 0.05 | 0.33 | 0.33 | 99 | 1004.7 |
| 20260506163045 | 55 | 200 | 2.0 | 2.0 | 0.00 | 0.32 | 0.32 | 99 | 1004.9 |
| 20260506162541 | 55 | 319 | 0.0 | 1.0 | 0.00 | 0.32 | 0.32 | 99 | 1004.7 |
| 20260506162033 | 55 | 294 | 0.0 | 0.0 | 0.07 | 0.32 | 0.32 | 99 | 1005.0 |
| 20260506161530 | 54 | 254 | 1.0 | 2.0 | 0.07 | 0.32 | 0.32 | 99 | 1005.1 |
| 20260506161027 | 54 | 221 | 0.0 | 0.0 | 0.05 | 0.31 | 0.31 | 99 | 1005.5 |
| 20260506160525 | 54 | 5 | 0.0 | 0.0 | 0.05 | 0.31 | 0.31 | 99 | 1005.5 |
| 20260506160022 | 54 | 271 | 0.0 | 0.0 | 0.00 | 0.30 | 0.30 | 99 | 1005.7 |